Terminal Aerodrome Forecast
Issued by NWS

Home | Current Version | Previous Version | Text Only | Print | Product List | Glossary On
Versions: 1 2 3 4 5 6 7 8 9 10 11 12 13 14 15 16 17 18 19 20 21
000
FTUS45 KCYS 042349 RRA
TAFLAR
TAF
KLAR 042349Z 0500/0524 24023G34KT P6SM BKN200
     FM051700 28025G37KT P6SM BKN090=

USA.gov is the U.S. government's official web portal to all federal, state and local government web resources and services.